Location: Unnamed
(47.6264°N, 122.3366°W)
Time: 21:35:54
(UTC-07:00)

ELYUSIUM/LOWER FREE FLYE - Pass Details

Date: 10 August 2020
Orbit: 571 x 589 km, 97.7° (Epoch: 21 September)

Event Time Altitude Azimuth Distance (km) Brightness Sun altitude
Exits shadow 21:23:33 - 93° (E) 2,057 ? -8.9°
Reaches altitude 10° 21:24:24 10° 83° (E) 1,886 ? -9.0°
Maximum altitude 21:26:03 12° 59° (ENE) 1,746 ? -9.2°
Drops below altitude 10° 21:27:43 10° 35° (NE) 1,896 ? -9.5°
Sets 21:31:03 0° 5° (N) 2,805 ? -9.9°
